[[{"header":{"parameterUnit":"m.s-1","parameterCategory":1,"la1":30.2991,"la2":30.254,"lo1":-89.0895,"lo2":-89.0444,"dy":0.0017,"dx":0.0017,"nx":28,"ny":28,"refTime":"2024-10-01T09:00:00:Z","depth":0,"parameterNumber":2,"parameterNumberName":"U-component_of_WINDS"},"data":[0,0,0,0,0,0,0,0,0,0,0,0,0,0,0,0,0,0,0,0,0,0,0,0,0,0,0,0,0,0,0,0,0,0,0,0,0,0,0,0,0,0,0,0,0,0,0,0,0,0,0,0,0,0,0,0,0,0,-0.8272,-0.8273,0,-0.8361,-0.8362,-0.8363,-0.8359,-0.8358,-0.8357,-0.8356,-0.8448,-0.8451,-0.8455,0,0,0,0,0,0,0,0,0,0,0,0,0,-0.8102,-0.8106,-0.8272,-0.8273,-0.8274,-0.836,-0.8362,-0.8363,-0.8359,-0.8358,-0.8356,-0.8355,-0.8446,-0.8451,-0.8455,0,0,0,0,0,0,0,0,0,0,0,0,0,-0.8182,-0.8107,-0.8272,-0.8283,-0.8285,-0.836,-0.8362,-0.8363,-0.836,-0.8358,-0.8356,-0.8354,-0.8445,-0.845,-0.8456,-0.8526,0,0,-0.8472,-0.8474,0,0,0,0,0,0,0,0,-0.8178,-0.8188,-0.828,-0.8282,-0.8285,-0.8347,-0.8335,-0.8418,-0.836,-0.8331,-0.8355,-0.8353,-0.8416,-0.8423,-0.8444,-0.853,-0.8534,-0.8473,-0.8476,-0.8478,-0.848,0,0,0,0,0,0,0,-0.8172,-0.8184,-0.8307,-0.8282,-0.8284,-0.8284,-0.8293,-0.8351,-0.8383,-0.8334,-0.8334,-0.8344,-0.8417,-0.8439,-0.8446,-0.8536,-0.8472,-0.8477,-0.8481,-0.8483,-0.8686,-0.8688,0,0,0,0,0,0,-0.8164,-0.818,-0.8304,-0.831,-0.8225,-0.8289,-0.8299,-0.8329,-0.8382,-0.8389,-0.8346,-0.8344,-0.8431,-0.844,-0.8449,-0.8537,-0.8478,-0.8483,-0.8486,-0.8684,-0.8686,-0.8688,0,0,0,0,0,0,-0.816,-0.8175,-0.8301,-0.8245,-0.8261,-0.8294,-0.8327,-0.8332,-0.8354,-0.8391,-0.8397,-0.8363,-0.8429,-0.8442,-0.8507,-0.854,-0.8486,-0.8491,-0.8681,-0.8684,-0.8687,-0.8711,0,0,0,0,0,0,-0.8155,-0.8174,-0.8201,-0.8246,-0.8264,-0.8357,-0.8329,-0.8335,-0.8363,-0.8361,-0.8409,-0.8415,-0.8429,-0.8499,-0.8513,-0.8546,-0.8495,-0.8678,-0.8682,-0.8686,-0.8708,-0.8715,-0.8721,0,0,0,0,0,-0.8149,-0.8204,-0.8202,-0.8217,-0.8298,-0.8359,-0.8369,-0.8384,-0.8366,-0.8393,-0.8417,-0.8413,-0.8534,-0.8506,-0.8521,-0.8557,-0.8676,-0.8681,-0.8686,-0.8705,-0.8713,-0.8721,0,0,0,0,0,0,-0.8163,-0.821,-0.8208,-0.8279,-0.8315,-0.8358,-0.8393,-0.8393,-0.8435,-0.8432,-0.8448,-0.8459,-0.8525,-0.8547,-0.8515,-0.8628,-0.8603,-0.8611,-0.8612,-0.862,-0.8627,-0.8621,-0.8499,0,0,0,0,0,-0.8173,-0.8218,-0.8257,-0.8316,-0.8334,-0.836,-0.8387,-0.8396,-0.8434,-0.8449,-0.8478,-0.8515,-0.8562,-0.8592,-0.8637,-0.871,-0.8721,-0.8742,-0.8749,-0.8754,-0.8762,-0.8803,-0.8814,-0.8704,-0.8704,-0.8704,0,0,-0.8197,-0.8228,-0.8256,-0.8319,-0.8348,-0.8395,-0.8373,-0.8423,-0.8459,-0.8457,-0.8521,-0.8543,-0.8586,-0.8656,-0.8688,-0.8677,-0.8794,-0.876,-0.8764,-0.8769,-0.8809,-0.882,-0.8829,-0.8708,-0.8707,-0.8706,0,0,-0.8264,-0.8292,-0.8344,-0.8373,-0.8417,-0.8434,-0.8446,-0.849,-0.8505,-0.8569,-0.8568,-0.861,-0.869,-0.8721,-0.8747,-0.8825,-0.8824,-0.8839,-0.8875,-0.8915,-0.8924,-0.8932,-0.8961,-0.8971,-0.8846,-0.8846,-0.8846,0,-0.8288,-0.8358,-0.8371,-0.8422,-0.845,-0.845,-0.8504,-0.8531,-0.8588,-0.8608,-0.8593,-0.8693,-0.8722,-0.88,-0.8819,-0.884,-0.8856,-0.8835,-0.8921,-0.8929,-0.8937,-0.8965,-0.8976,-0.8848,-0.8848,-0.8848,-0.8847,0,-0.8386,-0.8434,-0.8472,-0.8526,-0.8558,-0.861,-0.8632,-0.8663,-0.8668,-0.8687,-0.8753,-0.8787,-0.8839,-0.8858,-0.8864,-0.8937,-0.8929,-0.8918,-0.8893,-0.8949,-0.8976,-0.8987,-0.885,-0.885,-0.8849,-0.8849,0,0,-0.8465,-0.8525,-0.8539,-0.8564,-0.8612,-0.865,-0.8702,-0.8752,-0.8779,-0.8818,-0.8863,-0.893,-0.892,-0.895,-0.8959,-0.8994,-0.9056,-0.8979,-0.898,-0.8993,-0.914,-0.915,-0.9162,-0.9054,-0.9056,-0.9058,-0.9137,0,-0.8538,-0.8631,-0.8644,-0.8726,-0.8771,-0.8771,-0.8817,-0.8851,-0.887,-0.8912,-0.8933,-0.8981,-0.8964,-0.8982,-0.9017,-0.9041,-0.9086,-0.9035,-0.9098,-0.91,-0.9089,-0.9176,-0.9186,-0.9259,-0.9148,-0.915,-0.9151,0,-0.8637,-0.8677,-0.8764,-0.8806,-0.8825,-0.8866,-0.8914,-0.8953,-0.8993,-0.9004,-0.9037,-0.9042,-0.9097,-0.9068,-0.9144,-0.9109,-0.9136,-0.9151,-0.9155,-0.9163,-0.913,-0.9188,-0.9283,-0.9295,-0.9167,-0.9166,-0.9165,0,-0.8688,-0.8764,-0.8826,-0.8847,-0.8897,-0.8926,-0.8948,-0.8986,-0.9016,-0.9057,-0.9077,-0.9124,-0.9151,-0.9188,-0.9205,-0.9182,-0.9281,-0.9253,-0.9293,-0.9293,-0.9316,-0.9315,-0.9418,-0.933,-0.9329,-0.9329,-0.9329,0,-0.8769,-0.8822,-0.885,-0.8888,-0.8948,-0.8962,-0.9021,-0.9043,-0.9076,-0.9119,-0.9122,-0.9162,-0.9182,-0.9226,-0.924,-0.9302,-0.9313,-0.9325,-0.9328,-0.9326,-0.9325,-0.9345,-0.9341,-0.9332,-0.9331,-0.9331,-0.933,0,-0.8837,-0.8857,-0.8925,-0.8967,-0.8979,-0.9021,-0.9057,-0.9095,-0.9113,-0.9167,-0.9181,-0.921,-0.9261,-0.9282,-0.9345,-0.9354,-0.9426,-0.9425,-0.9413,-0.9415,-0.9454,-0.9451,-0.9576,-0.9594,-0.9491,-0.9492,-0.9493,0,-0.8889,-0.893,-0.8976,-0.9005,-0.9028,-0.9074,-0.9104,-0.912,-0.9152,-0.92,-0.9232,-0.9283,-0.9325,-0.9407,-0.9434,-0.9483,-0.9484,-0.9524,-0.9491,-0.9488,-0.9487,-0.9485,-0.949,-0.9531,-0.9532,-0.9533,-0.9534,0,-0.8979,-0.8987,-0.903,-0.9077,-0.9113,-0.9151,-0.9188,-0.9211,-0.9233,-0.9268,-0.9321,-0.9353,-0.9417,-0.9469,-0.9519,-0.9542,-0.9543,-0.9543,-0.9556,-0.9554,-0.9547,-0.9553,-0.9432,-0.9541,-0.954,-0.954,-0.9539,-0.9539,-0.9042,-0.9079,-0.9117,-0.9165,-0.9194,-0.9229,-0.9266,-0.9289,-0.9333,-0.9386,-0.9393,-0.945,-0.9488,-0.9555,-0.9581,-0.9626,-0.9616,-0.9633,-0.9638,-0.9642,-0.9646,-0.9538,-0.9635,-0.9635,-0.9634,-0.9634,-0.9634,0,-0.9134,-0.9158,-0.9202,-0.9254,-0.9292,-0.9287,-0.9327,-0.936,-0.941,-0.9446,-0.9487,-0.9548,-0.9597,-0.9628,-0.9678,-0.9708,-0.971,-0.9721,-0.972,-0.9726,-0.9651,-0.9636,-0.972,-0.972,-0.972,-0.972,-0.9719,-0.9719,-0.9186,-0.9249,-0.9261,-0.9338,-0.9362,-0.9418,-0.9441,-0.9473,-0.9502,-0.957,-0.9611,-0.963,-0.9665,-0.9717,-0.9763,-0.9771,-0.979,-0.9803,-0.981,-0.974,-0.9731,-0.9723,-0.9709,-0.9806,-0.9806,-0.9882,-0.9882,-0.9883]},{"header":{"parameterUnit":"m.s-1","parameterCategory":1,"la1":30.2991,"la2":30.254,"lo1":-89.0895,"lo2":-89.0444,"dy":0.0017,"dx":0.0017,"nx":28,"ny":28,"refTime":"2024-10-01T09:00:00:Z","depth":0,"parameterNumber":3,"parameterNumberName":"V-component_of_WINDS"},"data":[0,0,0,0,0,0,0,0,0,0,0,0,0,0,0,0,0,0,0,0,0,0,0,0,0,0,0,0,0,0,0,0,0,0,0,0,0,0,0,0,0,0,0,0,0,0,0,0,0,0,0,0,0,0,0,0,0,0,-3.4287,-3.4287,0,-3.4343,-3.4344,-3.4345,-3.4279,-3.4277,-3.4274,-3.4272,-3.4328,-3.4332,-3.4335,0,0,0,0,0,0,0,0,0,0,0,0,0,-3.412,-3.4123,-3.4287,-3.4287,-3.4288,-3.4343,-3.4344,-3.4345,-3.428,-3.4277,-3.4274,-3.4271,-3.4327,-3.4331,-3.4336,0,0,0,0,0,0,0,0,0,0,0,0,0,-3.4186,-3.4124,-3.4286,-3.4262,-3.4261,-3.4343,-3.4344,-3.4345,-3.428,-3.4277,-3.4273,-3.427,-3.4325,-3.4331,-3.4336,-3.4445,0,0,-3.4354,-3.4356,0,0,0,0,0,0,0,0,-3.4182,-3.4192,-3.4265,-3.4264,-3.4262,-3.43,-3.4306,-3.4378,-3.4281,-3.4273,-3.4272,-3.4268,-3.4322,-3.4327,-3.4346,-3.4447,-3.445,-3.4354,-3.4357,-3.436,-3.4362,0,0,0,0,0,0,0,-3.4178,-3.4189,-3.4309,-3.4266,-3.4265,-3.4248,-3.4253,-3.4319,-3.4317,-3.4273,-3.4269,-3.4276,-3.432,-3.4341,-3.4347,-3.445,-3.4354,-3.4359,-3.4362,-3.4365,-3.4643,-3.4647,0,0,0,0,0,0,-3.4176,-3.4186,-3.4307,-3.4311,-3.4213,-3.4254,-3.426,-3.4292,-3.4316,-3.4316,-3.4279,-3.4273,-3.4333,-3.434,-3.4349,-3.4477,-3.436,-3.4365,-3.4368,-3.4639,-3.4644,-3.4649,0,0,0,0,0,0,-3.4173,-3.4188,-3.4305,-3.4247,-3.4261,-3.4261,-3.4297,-3.4295,-3.4315,-3.4321,-3.432,-3.4301,-3.433,-3.4341,-3.4421,-3.4478,-3.4368,-3.4373,-3.4635,-3.4641,-3.4646,-3.4736,0,0,0,0,0,0,-3.4168,-3.4187,-3.4229,-3.4249,-3.4264,-3.4378,-3.4301,-3.4299,-3.4326,-3.4318,-3.4341,-3.4341,-3.4328,-3.4413,-3.4427,-3.4484,-3.4377,-3.463,-3.4637,-3.4645,-3.4728,-3.4744,-3.4758,0,0,0,0,0,-3.4163,-3.4251,-3.4231,-3.4246,-3.4316,-3.4381,-3.439,-3.4374,-3.433,-3.4372,-3.4376,-3.434,-3.447,-3.4422,-3.4437,-3.4497,-3.4626,-3.4635,-3.4644,-3.4721,-3.4741,-3.4757,0,0,0,0,0,0,-3.4237,-3.4253,-3.4231,-3.4329,-3.4354,-3.437,-3.4422,-3.4395,-3.4433,-3.4424,-3.4402,-3.4408,-3.4494,-3.4503,-3.445,-3.4603,-3.4541,-3.4553,-3.4594,-3.4613,-3.4628,-3.4624,-3.4382,0,0,0,0,0,-3.4264,-3.4317,-3.4327,-3.4412,-3.4426,-3.4422,-3.445,-3.4435,-3.4461,-3.4471,-3.448,-3.4505,-3.4551,-3.4582,-3.4625,-3.4728,-3.4732,-3.4776,-3.4792,-3.4804,-3.4815,-3.4871,-3.4891,-3.4678,-3.4678,-3.4678,0,0,-3.4322,-3.4337,-3.4371,-3.4428,-3.4446,-3.45,-3.4432,-3.4491,-3.4531,-3.4479,-3.4557,-3.4565,-3.4591,-3.4684,-3.4725,-3.4694,-3.4875,-3.4816,-3.4825,-3.483,-3.4882,-3.4902,-3.492,-3.4684,-3.4683,-3.4682,0,0,-3.4455,-3.4472,-3.4544,-3.4564,-3.4593,-3.4589,-3.4607,-3.4627,-3.4631,-3.4708,-3.4671,-3.4717,-3.4797,-3.4818,-3.4839,-3.498,-3.4949,-3.4994,-3.5074,-3.5128,-3.5145,-3.5159,-3.521,-3.5229,-3.5005,-3.5005,-3.5006,0,-3.4523,-3.4603,-3.4585,-3.4648,-3.4674,-3.463,-3.4704,-3.4723,-3.4764,-3.4783,-3.4747,-3.4848,-3.4862,-3.4959,-3.4994,-3.5012,-3.5031,-3.4992,-3.5144,-3.5159,-3.5172,-3.522,-3.5239,-3.5011,-3.501,-3.501,-3.5009,0,-3.4685,-3.4742,-3.4797,-3.4839,-3.4871,-3.4938,-3.493,-3.4964,-3.4947,-3.4947,-3.5027,-3.5043,-3.5088,-3.511,-3.5093,-3.5205,-3.5185,-3.5147,-3.5085,-3.5198,-3.5243,-3.5261,-3.5019,-3.5017,-3.5015,-3.5014,0,0,-3.4866,-3.4898,-3.4918,-3.4937,-3.4965,-3.5008,-3.5074,-3.5119,-3.5149,-3.5179,-3.5233,-3.5302,-3.5268,-3.5292,-3.5277,-3.5325,-3.5436,-3.5281,-3.5281,-3.531,-3.556,-3.5589,-3.5611,-3.5415,-3.5419,-3.5421,-3.5558,0,-3.5,-3.5115,-3.5101,-3.521,-3.5262,-3.5222,-3.5279,-3.5302,-3.5304,-3.5348,-3.5349,-3.5399,-3.535,-3.5364,-3.5409,-3.5413,-3.5486,-3.5403,-3.5465,-3.5468,-3.5461,-3.5634,-3.5665,-3.5793,-3.5575,-3.5578,-3.5581,0,-3.5172,-3.5209,-3.5324,-3.5345,-3.5366,-3.5418,-3.5459,-3.5501,-3.5526,-3.5524,-3.5552,-3.5529,-3.5594,-3.5529,-3.5619,-3.5563,-3.5587,-3.5593,-3.5597,-3.5603,-3.5532,-3.5645,-3.5833,-3.5853,-3.5608,-3.5606,-3.5604,0,-3.5293,-3.5371,-3.5451,-3.5468,-3.5494,-3.5531,-3.5544,-3.5566,-3.5594,-3.5629,-3.5648,-3.569,-3.5713,-3.5746,-3.5734,-3.5688,-3.5826,-3.5761,-3.5826,-3.5827,-3.5858,-3.5856,-3.6054,-3.5873,-3.5872,-3.5872,-3.5872,0,-3.5444,-3.5517,-3.5506,-3.5555,-3.5634,-3.5617,-3.5696,-3.5703,-3.5723,-3.5772,-3.5739,-3.5786,-3.5768,-3.5813,-3.5804,-3.588,-3.589,-3.589,-3.5887,-3.5894,-3.5894,-3.591,-3.5901,-3.5877,-3.5876,-3.5875,-3.5874,0,-3.5594,-3.5589,-3.5673,-3.5691,-3.5698,-3.5756,-3.5771,-3.5817,-3.5816,-3.5879,-3.5892,-3.5891,-3.5943,-3.5935,-3.5992,-3.5986,-3.6081,-3.6066,-3.6073,-3.6069,-3.6136,-3.613,-3.6351,-3.6379,-3.618,-3.6182,-3.6183,0,-3.5691,-3.5746,-3.577,-3.5801,-3.5817,-3.5867,-3.5896,-3.5881,-3.5912,-3.5946,-3.5987,-3.6036,-3.6075,-3.6159,-3.6163,-3.6207,-3.6193,-3.6268,-3.62,-3.6205,-3.6195,-3.6193,-3.6198,-3.6282,-3.6284,-3.6286,-3.6287,0,-3.5864,-3.5859,-3.5903,-3.5947,-3.5983,-3.6016,-3.6046,-3.6073,-3.606,-3.6097,-3.615,-3.618,-3.6239,-3.6288,-3.6328,-3.634,-3.6312,-3.6309,-3.6326,-3.6334,-3.6336,-3.6336,-3.611,-3.6304,-3.6302,-3.6301,-3.63,-3.6299,-3.5991,-3.6038,-3.6063,-3.6113,-3.6134,-3.6162,-3.6207,-3.6212,-3.6256,-3.6304,-3.6291,-3.6352,-3.6375,-3.6427,-3.6444,-3.649,-3.6463,-3.6488,-3.6495,-3.6501,-3.651,-3.6328,-3.6497,-3.6497,-3.6496,-3.6496,-3.6496,0,-3.6163,-3.6177,-3.6223,-3.6266,-3.6306,-3.6276,-3.6308,-3.6342,-3.6396,-3.6421,-3.646,-3.6521,-3.6569,-3.6577,-3.6622,-3.6657,-3.6645,-3.667,-3.6667,-3.6671,-3.6531,-3.6512,-3.6679,-3.6679,-3.6679,-3.6678,-3.6678,-3.6678,-3.6257,-3.6335,-3.6334,-3.6422,-3.6435,-3.6495,-3.6516,-3.6542,-3.6562,-3.6632,-3.6672,-3.6677,-3.6695,-3.6741,-3.6783,-3.6784,-3.6803,-3.6832,-3.6828,-3.6698,-3.668,-3.6663,-3.6645,-3.6836,-3.6836,-3.6964,-3.6965,-3.6966]}]]